Location: Ravensburg
(47.7866°N, 9.6124°E)
Time: 02:41:46
(UTC+02:00)

CAS-6 - Pass Details

Date: 18 March 2026
Orbit: 601 x 618 km, 97.8° (Epoch: 14 April)

Event Time Altitude Azimuth Distance (km) Brightness Sun altitude
Exits shadow 21:27:33 17° 15° (NNE) 1,548 ? -28.7°
Drops below altitude 10° 21:28:44 10° 5° (N) 1,959 ? -28.8°
Sets 21:31:05 0° 356° (N) 2,869 ? -29.2°
